Probability
0 0 0 0 0 0 0 0 0 0 0 0 0 0 0 0 0 0 0 0 0 0 0 0 1 0 0 0 0 0 0 1 2 2 1 0 1 2 2 1 0 0 0 0 0 0 0 0 0
0 0 0 0 0 0 0 0 0 0 0 0 0 0 0 0 0 0 0 0 0 0 0 0 1 1 0 0 0 0 0 0 1 1 0 0 0 1 1 0 0 0 0 0 0 0 0 0 1
0 0 0 0 0 0 0 0 0 0 0 0 0 0 0 0 0 0 0 0 0 0 0 0 1 1 0 0 0 1 1 2 2 2 1 0 1 2 2 1 0 0 0 0 0 0 0 0 1
0 0 0 0 0 0 0 0 0 0 0 0 0 0 0 0 0 0 0 0 0 0 0 0 0 0 0 0 0 1 2 4 4 3 2 2 2 2 2 1 0 0 0 0 0 0 0 0 1
0 0 0 0 0 0 0 0 0 0 0 0 0 0 0 0 0 0 0 0 0 0 0 0 0 0 0 0 0 1 2 4 5 4 4 4 3 2 1 0 0 0 0 0 0 0 0 0 0
0 0 0 0 0 0 0 0 0 0 0 0 0 0 0 0 0 0 0 0 0 0 0 0 0 0 0 0 0 0 0 2 4 5 6 6 4 1 1 1 1 0 0 0 0 0 0 0 0
0 0 0 0 0 0 0 0 0 0 0 0 0 0 0 0 0 0 0 0 0 0 0 0 0 0 0 0 0 0 1 3 4 6 8 9 6 3 2 2 2 1 1 1 0 0 0 0 0
0 0 0 0 0 0 0 0 0 0 0 0 0 0 0 0 0 0 0 0 0 0 0 0 0 0 0 0 0 1 2 4 4 6 8 9 7 5 4 3 3 3 3 3 2 1 1 1 0
0 0 0 0 0 0 0 0 0 0 0 0 0 0 0 0 0 0 0 0 0 0 0 0 0 0 0 0 0 0 1 2 2 3 5 5 4 3 3 4 4 4 4 4 3 2 1 1 1
0 0 0 0 0 0 0 0 0 0 0 0 0 0 0 0 0 0 0 0 0 0 0 0 0 0 0 0 0 0 0 0 0 0 1 1 1 1 1 3 4 3 2 2 2 2 1 1 0
0 0 0 0 0 0 0 0 0 0 0 0 0 0 0 0 0 0 0 0 0 0 0 0 0 0 0 0 0 0 0 0 0 0 0 0 0 0 0 1 2 1 1 0 1 1 1 0 0
0 0 0 0 0 1 1 0 0 0 0 0 0 0 0 0 0 0 0 0 0 0 0 0 0 0 0 0 0 0 0 0 0 0 0 0 0 0 0 0 0 0 0 0 0 0 0 0 0
0 0 0 0 0 1 1 0 0 0 0 0 0 0 0 0 0 0 0 0 0 0 0 0 0 0 0 0 0 0 0 0 0 0 0 0 0 0 0 0 0 0 0 0 0 0 0 0 0
0 0 0 0 0 0 0 0 0 0 0 0 0 0 0 0 0 0 0 0 0 0 0 0 0 0 0 0 0 0 0 0 0 0 0 0 0 0 0 0 0 0 0 0 0 0 0 0 0
0 0 0 0 0 0 0 0 0 0 0 0 0 0 0 0 0 0 0 0 0 0 0 0 0 0 0 0 0 0 0 0 0 0 0 0 0 0 0 0 0 0 0 0 0 0 0 0 0
0 0 0 0 0 0 0 0 0 0 0 0 0 0 0 0 0 0 0 0 0 0 0 0 0 0 0 0 0 0 0 0 0 0 0 0 0 0 0 0 0 0 0 0 0 0 0 0 0
0 0 0 0 0 0 0 0 0 0 0 0 0 0 0 0 0 0 0 0 0 0 0 0 0 0 0 0 0 0 0 0 0 0 0 0 0 0 0 0 0 0 0 0 0 0 0 0 0
0 0 0 0 0 0 0 0 0 0 0 0 0 0 0 0 0 0 0 0 0 0 0 0 0 0 0 0 0 0 0 0 0 0 0 0 0 0 0 0 0 0 0 0 0 0 0 0 0
0 0 0 0 0 0 0 0 0 0 0 0 0 0 0 0 0 0 0 0 0 0 0 0 0 0 0 0 0 0 0 0 0 0 0 0 0 0 0 0 0 0 0 0 0 0 0 0 0
0 0 0 0 0 0 0 0 0 0 0 0 0 0 0 0 0 0 0 0 0 0 0 0 0 0 0 0 0 0 0 0 0 0 0 0 0 0 0 0 0 0 0 0 0 0 0 0 0
0 0 0 0 0 0 0 0 0 0 0 0 0 0 0 0 0 0 0 0 0 0 0 0 0 0 0 0 0 0 0 0 0 0 0 0 0 0 0 0 0 0 0 0 0 0 0 0 0
0 0 0 0 0 0 0 0 0 0 0 0 0 0 0 0 0 0 0 0 0 0 0 0 0 0 0 0 0 0 0 0 0 0 0 0 0 0 0 0 0 0 0 0 0 0 0 0 0
0 0 0 0 0 0 0 0 0 0 0 0 0 0 0 0 0 0 0 0 0 0 0 0 0 0 0 0 0 0 0 0 0 0 0 0 0 0 0 0 0 0 0 0 0 0 0 0 0
0 0 0 0 0 0 0 0 0 0 0 0 0 0 0 0 0 0 0 0 0 0 0 0 0 0 0 0 0 0 0 0 0 0 0 0 0 0 0 0 0 0 0 0 0 0 0 0 0
0 0 0 0 0 0 0 0 0 0 0 0 0 0 0 0 0 0 0 0 0 0 0 0 0 0 0 0 0 0 0 0 0 0 0 0 0 0 0 0 0 0 0 0 0 0 0 0 0
0 0 0 0 0 0 0 0 0 0 0 0 0 0 0 0 0 0 0 0 0 0 0 0 0 0 0 0 0 0 0 0 0 0 0 0 0 0 0 0 0 0 0 0 0 0 0 0 0
0 0 0 0 0 0 0 0 0 0 0 0 0 0 0 0 0 0 0 0 0 0 0 0 0 0 0 0 0 0 0 0 0 0 0 0 0 0 0 0 0 0 0 0 0 0 0 0 0
0 0 0 0 0 0 0 0 0 0 0 0 0 0 0 0 0 0 0 0 0 0 0 0 0 0 0 0 0 0 0 0 0 0 0 0 0 0 0 0 0 0 0 0 0 0 0 0 0
0 0 0 0 0 0 0 0 0 0 0 0 0 0 0 0 0 0 0 0 0 0 0 0 0 0 0 0 0 0 0 0 0 0 0 0 0 0 0 0 0 0 0 0 0 0 0 0 0
0 0 0 0 0 0 0 0 0 0 0 0 0 0 0 0 0 0 0 0 0 0 0 0 0 0 0 0 0 0 0 0 0 0 0 0 0 0 0 0 0 0 0 0 0 0 0 0 0
Wind_Speed
3 4 3 3 3 3 1 3 2 2 2 3 5 6 6 4 2 1 1 1 2 3 3 4 5 5 5 5 5 4 5 5 5 5 5 5 5 5 4 4 4 3 3 2 1 1 2 2 3
4 4 3 3 3 1 2 2 2 1 2 2 4 5 5 5 3 2 1 1 3 3 1 2 3 4 4 4 4 4 5 5 5 5 5 5 5 5 5 5 4 4 4 3 3 2 2 1 1
5 3 3 3 2 2 2 1 0 1 3 2 3 4 4 3 2 1 0 2 4 2 1 0 1 2 3 3 3 4 5 5 5 5 6 6 6 6 6 6 6 5 5 5 4 4 3 2 1
3 3 2 2 1 2 2 2 2 2 3 4 3 4 3 3 2 1 2 4 4 2 1 0 2 2 2 3 3 5 5 5 5 6 7 8 8 8 7 7 7 7 6 6 6 5 5 4 3
3 3 2 1 1 1 1 1 1 1 2 2 3 4 2 3 3 4 3 3 3 1 1 0 2 2 2 3 4 5 5 6 6 7 8 9 9 8 8 8 8 8 8 8 7 7 7 6 5
3 3 3 0 1 1 1 1 1 2 2 2 3 4 1 2 2 2 3 2 2 1 1 2 2 1 2 2 4 5 5 6 6 7 7 9 9 9 9 8 8 8 9 9 8 8 8 7 6
3 3 1 1 0 1 0 1 2 2 2 2 3 4 1 1 1 2 3 3 2 2 2 3 3 4 5 5 5 5 6 6 6 7 7 8 8 8 9 9 9 9 9 9 9 9 9 8 7
3 3 2 1 2 2 0 1 2 2 2 2 3 5 4 3 3 4 4 4 3 3 3 3 3 3 3 4 6 6 7 7 6 7 8 8 8 8 9 8 8 9 9 9 9 9 9 9 8
3 4 1 3 3 2 1 1 1 1 3 2 2 3 4 7 5 4 2 2 2 2 2 3 3 3 3 3 5 6 7 7 7 6 7 6 3 4 5 7 8 10 10 9 8 8 8 8 7
3 3 4 3 4 3 2 2 3 3 2 2 3 3 5 6 5 4 3 1 0 1 2 2 2 3 3 3 3 3 3 4 3 3 3 3 2 3 4 5 8 9 9 8 8 8 7 5 2
3 4 3 2 2 3 3 2 3 6 3 5 6 7 7 5 4 4 3 2 1 0 1 2 2 2 3 2 2 2 2 2 3 3 3 3 2 2 2 2 3 4 5 3 4 4 2 2 2
2 1 1 1 1 3 3 3 2 5 5 4 8 9 7 6 6 5 4 2 1 1 0 1 1 2 2 2 2 2 2 2 2 3 3 2 1 2 2 1 2 2 1 2 2 1 2 2 3
2 1 1 1 2 1 2 1 2 4 1 5 7 7 7 6 4 3 3 2 2 1 1 1 1 2 2 2 2 2 2 2 2 2 2 2 1 2 2 2 2 2 2 2 2 2 2 3 3
2 1 0 0 2 1 2 0 1 4 4 7 8 7 6 6 5 3 3 2 2 1 1 1 1 2 2 2 2 2 2 2 2 2 3 2 1 1 2 2 2 2 2 2 2 2 2 2 2
2 2 2 1 1 1 3 1 5 4 6 6 7 6 5 4 4 5 4 4 3 1 1 1 0 2 3 3 3 2 2 2 2 2 3 3 2 2 2 2 2 2 2 2 1 2 1 2 2
3 3 1 3 2 2 3 6 5 5 8 7 6 5 4 3 4 4 4 3 2 1 0 1 1 2 3 3 3 2 2 2 2 2 2 3 3 2 2 1 2 2 1 1 1 1 1 2 2
2 1 3 3 3 3 4 6 3 4 8 7 6 5 4 3 3 4 3 3 2 1 1 1 2 2 3 3 3 2 2 2 2 2 2 3 3 2 1 1 2 2 1 1 1 1 1 2 2
5 4 4 4 3 4 4 6 3 4 7 7 5 5 4 5 6 4 4 3 2 1 0 1 2 2 3 2 2 2 3 3 2 2 2 3 3 3 2 1 2 2 1 1 1 1 1 1 1
5 5 4 4 3 5 6 6 5 4 5 6 6 6 6 6 4 3 3 3 1 1 1 1 2 2 2 2 2 2 3 3 3 3 3 3 3 3 2 2 2 1 1 1 1 0 1 1 0
4 3 3 2 2 4 2 5 5 4 7 7 8 8 7 5 3 3 3 2 2 2 2 2 2 2 2 1 1 2 2 3 3 3 3 3 3 3 2 1 1 1 1 1 1 0 0 1 1
3 5 4 2 2 3 2 6 4 2 2 3 5 6 6 8 7 5 4 4 3 3 3 3 3 3 3 2 1 2 2 2 3 3 3 4 4 3 3 2 1 1 0 1 1 1 1 1 1
4 4 4 3 3 2 1 3 6 3 2 4 5 6 7 6 6 5 5 4 5 5 3 3 3 3 3 2 1 1 1 2 3 3 3 4 4 3 3 2 2 1 1 1 1 1 1 1 1
3 3 4 3 3 2 1 1 8 2 4 6 6 7 7 7 7 7 7 6 5 4 3 3 2 3 2 2 1 1 1 2 3 3 4 4 4 4 3 3 2 2 1 1 1 1 1 1 1
5 6 6 6 5 1 2 3 7 4 6 5 5 7 7 7 6 6 5 4 3 3 2 2 2 3 2 2 2 1 2 3 3 4 4 4 3 3 4 3 2 2 1 2 1 1 1 1 2
4 6 4 4 4 5 2 3 9 6 6 6 6 7 7 7 6 6 6 5 4 4 4 3 2 3 3 2 2 2 2 2 2 3 3 4 3 3 4 4 3 2 2 2 1 1 1 1 1
4 7 6 4 4 5 2 5 8 5 4 3 4 4 5 6 6 7 7 6 5 5 4 3 3 4 3 3 3 2 2 1 2 2 2 3 3 3 4 4 3 3 2 2 1 1 1 1 1
6 3 5 7 2 2 5 7 8 2 1 1 2 4 6 7 7 7 6 6 5 5 5 4 4 4 3 3 2 2 2 2 2 3 2 2 3 3 4 4 4 3 2 2 1 1 1 1 1
4 8 6 5 3 3 6 5 5 5 6 4 4 6 7 6 6 6 6 6 5 5 4 3 3 4 3 2 2 1 2 2 2 2 3 3 4 4 4 5 4 4 3 2 2 1 1 1 1
4 4 6 5 5 5 3 8 7 7 7 7 8 7 7 7 7 7 6 5 5 4 3 3 3 3 3 2 2 2 2 2 2 2 3 3 3 4 4 4 4 4 4 3 2 2 2 2 2
4 6 7 5 3 4 3 10 6 6 6 6 7 6 6 6 6 6 6 4 4 4 4 4 4 4 3 2 2 2 2 2 2 3 3 3 3 4 4 4 4 4 4 3 3 3 3 2 2
Wind_Direction
177 109 89 64 57 54 295 291 304 344 34 26 39 65 83 70 64 99 325 71 131 144 171 183 176 175 177 184 192 198 202 198 192 190 188 186 182 181 180 179 179 178 175 171 160 137 120 105 94
121 103 69 59 80 78 291 295 331 352 127 109 46 51 65 61 50 66 7 55 109 126 127 176 192 195 196 200 206 210 220 217 215 213 212 213 209 207 205 208 207 206 204 205 211 216 198 157 113
119 85 87 80 99 181 228 277 235 67 88 77 66 47 61 37 19 51 322 111 101 105 82 319 219 225 227 225 232 240 243 240 237 240 236 233 231 227 223 225 224 224 224 223 223 227 226 226 220
105 72 74 87 202 236 230 241 199 128 70 54 89 67 51 8 343 112 106 111 109 111 95 318 248 257 269 268 266 263 264 265 260 258 258 253 247 243 238 236 235 234 235 236 235 231 230 235 240
74 89 70 36 258 268 260 253 193 90 69 59 89 92 42 356 37 83 96 108 119 103 68 318 234 247 266 277 275 276 277 276 274 273 273 269 264 260 255 250 246 243 242 241 241 237 234 237 241
74 77 90 228 273 326 321 359 84 85 96 97 99 108 93 3 57 81 89 85 89 91 40 13 353 2 342 311 302 303 298 289 283 283 285 283 279 273 270 266 262 257 251 248 246 241 236 238 242
119 107 135 189 247 307 305 64 109 120 111 132 128 113 130 329 106 96 86 73 60 51 37 17 6 6 356 343 333 326 317 306 300 301 300 298 294 285 276 270 268 265 262 255 249 244 240 241 242
136 108 102 164 191 247 308 68 106 110 115 104 121 140 181 196 129 93 72 58 45 40 28 16 8 6 357 342 334 336 329 325 320 318 312 310 307 303 294 286 278 271 266 262 256 250 245 244 246
103 88 176 205 195 229 173 113 84 71 100 77 92 158 166 134 118 104 79 40 26 26 15 15 9 359 351 335 349 351 341 340 338 331 323 322 319 311 299 292 290 283 276 271 267 260 255 253 253
103 142 213 199 185 188 184 173 161 107 95 90 73 74 111 124 132 141 151 160 104 356 357 15 11 2 358 353 360 346 344 340 335 322 317 310 302 299 300 304 298 297 290 282 276 270 264 259 250
146 183 207 205 185 164 164 165 154 138 189 193 177 159 148 145 155 168 180 187 192 215 355 3 357 358 3 351 344 343 339 337 333 331 321 312 312 308 308 307 307 307 300 288 283 282 262 245 230
149 219 179 205 142 144 159 150 166 190 216 193 170 159 159 166 180 185 184 182 167 142 314 347 357 5 358 352 338 333 334 331 331 330 331 331 321 315 305 292 283 285 285 279 271 259 259 251 239
158 206 218 213 118 129 124 150 211 236 193 132 142 151 167 178 186 181 168 167 165 180 250 335 7 12 4 1 339 352 338 330 325 328 332 340 323 313 307 299 293 284 267 263 266 255 257 250 245
170 163 271 356 107 101 125 128 203 244 144 143 155 170 181 182 176 159 165 179 194 214 252 340 13 11 11 2 342 336 338 332 332 331 332 335 319 307 314 312 306 291 271 256 251 245 240 245 240
99 79 360 252 152 160 115 266 233 216 149 161 174 178 176 183 174 178 185 186 198 216 281 330 218 24 8 351 342 343 333 337 335 328 329 330 324 315 309 303 299 294 285 267 254 252 232 239 244
63 58 316 274 168 157 145 255 249 176 160 179 186 184 180 190 193 195 189 186 190 182 46 343 15 19 355 346 338 333 335 339 331 325 326 328 328 322 309 297 288 292 293 276 253 235 234 234 237
56 169 253 280 192 161 186 249 278 170 171 187 192 194 192 195 206 207 196 191 185 177 174 333 350 342 337 339 338 336 339 341 328 329 330 328 328 325 307 293 294 301 297 278 270 224 219 237 237
195 200 233 246 209 171 211 252 268 185 184 196 196 199 200 203 215 202 192 189 175 158 212 303 322 325 331 336 342 343 348 342 337 334 330 332 331 329 319 301 313 320 307 296 272 239 235 239 235
170 179 220 244 186 177 224 256 264 204 198 203 202 204 210 218 220 191 184 175 159 194 271 287 306 316 336 342 342 336 327 323 329 331 334 335 335 337 328 318 323 329 307 292 287 233 239 259 200
155 180 233 275 153 176 248 278 275 212 208 206 203 205 206 205 198 194 192 188 201 229 251 270 279 296 310 301 286 270 283 295 295 309 330 336 339 337 334 325 312 312 306 332 324 182 182 231 179
181 191 209 204 64 50 13 316 308 287 225 200 197 197 199 199 200 202 201 211 222 237 241 250 261 282 302 315 332 342 347 336 339 337 335 330 334 335 330 328 319 319 319 274 276 238 187 218 238
221 222 183 143 106 312 62 289 292 299 280 225 209 199 204 205 198 201 205 216 226 235 240 249 260 281 303 326 348 352 347 322 303 305 307 318 331 337 336 333 334 332 326 297 281 229 213 183 213
179 64 97 98 120 23 10 187 286 313 266 251 227 212 210 206 200 205 209 217 227 231 232 247 269 285 306 329 326 335 323 292 300 312 327 334 334 338 339 333 334 329 311 290 288 295 235 194 196
122 74 58 50 68 329 239 174 277 243 228 247 228 211 206 202 202 212 218 221 233 236 239 247 264 282 303 322 325 321 310 316 331 337 341 338 332 334 344 342 339 325 309 295 288 279 244 212 208
92 86 35 359 8 258 271 204 252 254 238 226 221 213 204 196 194 204 210 217 228 233 236 239 252 276 298 310 309 305 303 309 317 320 329 334 334 332 332 339 335 324 312 303 301 302 290 237 214
147 133 154 200 231 283 311 239 256 261 268 236 212 195 189 193 198 207 212 215 223 233 234 233 243 264 287 294 297 306 311 308 303 311 315 320 315 310 320 334 336 331 332 336 334 328 298 272 249
128 139 153 128 158 295 288 286 300 242 245 194 180 176 199 206 207 214 219 220 223 230 230 225 230 253 274 281 294 310 317 318 316 324 332 329 325 327 344 347 349 351 351 353 4 355 325 327 299
124 138 103 109 139 278 298 283 258 252 240 232 219 217 223 216 214 219 220 221 224 226 230 223 219 236 256 271 282 301 309 313 319 337 345 340 337 345 352 355 355 358 3 8 16 360 351 6 338
112 96 101 106 143 155 275 276 232 228 221 217 224 222 219 215 213 215 217 219 222 225 220 218 222 234 253 262 278 306 314 323 339 343 335 334 338 347 352 349 353 359 3 6 14 5 9 10 353
175 163 146 147 194 165 184 269 267 245 240 221 228 228 219 215 211 211 211 209 214 222 222 221 222 227 238 243 259 287 308 334 344 332 329 337 343 346 348 349 356 358 2 4 9 2 4 3 353